FENGYUN 1C DEB, 32311

Orbit data source: Space-Track

FENGYUN 1C DEB, 32311 is space debris in SSO originally from a launch on Mon, 10 May 1999 UTC launched from the Taiyaun Space Center, China (TSC). Fengyun 1C debris stems from the Chinese weather satellite Fengyun-1C, which was intentionally destroyed by a Chinese anti-satellite missile in 2007. This event dramatically increased the amount of space debris, with thousands of trackable fragments posing hazards to satellites and human spaceflight. The Fengyun 1C debris cloud has become a focal point in discussions about space sustainability and the need for international regulations to prevent the creation of new debris.

Loading next visibility...
Identifier
32311, 1999-025CXC
Orbit
SSO
Country
Flag of CNCN / PRC
Related business
Manufacturer
Unknown
Mission
Spacecraft
Bus & Motor
Unknown
Mass
Unknown
Launch date (UTC)
1999-05-10 (27 years ago)
Launch vehicle
Unknown
Launch site
Taiyaun Space Center, China (TSC)
Object type
Payload
Rocket body
Debris
Shape & HBR
Unknown shape, 0.1 m
Radar Cross Section
Medium (>0.1 m² and <1 m²)

Expand to show TLE details & history
Last TLE update: 1 week ago

TLE from 1 week ago
0 FENGYUN 1C DEB
1 32311U 99025CXC 26227.52493932 -.00000080  00000-0 -26826-4 0  9999
2 32311 101.7205 151.7608 0402782 264.6866  90.8185 13.34193004106148
Epoch: 2026-08-15T12:35Z
TLE epoch observation values (Epoch: 2026-08-15T12:35:54.757Z)
Latitude
-0.00001°
Longitude
-1.15192°
Altitude
1,150.161 km
Speed
7.27 km/s
True Right ascension
10h 07m 02s
True Declination
0° 00' 00"
Sunlit
Object was in daylight at epoch
Visualization orbit readout
Latitude
Unknown
Longitude
Unknown
Altitude
Unknown
Speed
Unknown
Apparent Right ascension
Unknown
Apparent Declination
Unknown
Sunlit
N/A
Visualization observer readout
Local Sidereal Time
08:30:52
Azimuth
Unknown
Elevation
Unknown
Doppler factor
Unknown
Orbital elements
Apogee altitude
1,430.769 km
Perigee altitude
826.068 km
Semi-major axis
7,506.556 km
Eccentricity
0.04028
Inclination
101.7205°
RAAN
151.7608°
Arg. of periapsis
264.6866°
True anomaly
95.42529°
Mean anomaly
90.8185°
Eccentric anomaly
93.12284°
Mean motion
3.3372 °/min
Orbital period
107.87 mins
BSTAR
-0.000026826
Loading maneuver chart data...
Computing Atmospheric mass density...

Documentation

Showing up to 5 results
|